N8767 DTTJ-DTTA

Flight info

Callsign N8767
Flight time 0h 43m
Altitude 24000
Route BISKO1A BISKO A411 TUC
Aircraft B737/M-SDE2E3FGHIRWXY/LB1

Departure

Time 2026-04-24 16:09
Airport Djerba Zarzis International Airport (DTTJ)

Arrival

Time 2026-04-24 16:52
Airport Tunis Carthage International Airport (DTTA)
Time Latitude Longitude Altitude Speed Heading
2026-04-24 15:33 33.87315 10.77530 29 ft 0 kts 178°
2026-04-24 15:59 33.87316 10.77530 26 ft 1 kts 178°
2026-04-24 16:00 33.87331 10.77530 31 ft 3 kts 178°
2026-04-24 16:00 33.87351 10.77529 30 ft 3 kts 180°
2026-04-24 16:00 33.87369 10.77532 27 ft 3 kts 212°
2026-04-24 16:00 33.87381 10.77546 30 ft 3 kts 257°
2026-04-24 16:01 33.87383 10.77566 29 ft 1 kts 268°
2026-04-24 16:01 33.87383 10.77568 29 ft 0 kts 268°
2026-04-24 16:03 33.87383 10.77550 29 ft 5 kts 268°
2026-04-24 16:04 33.87381 10.77484 26 ft 10 kts 268°
2026-04-24 16:04 33.87379 10.77386 26 ft 13 kts 268°
2026-04-24 16:04 33.87368 10.77263 26 ft 15 kts 266°
2026-04-24 16:04 33.87364 10.77142 26 ft 14 kts 269°
2026-04-24 16:05 33.87358 10.76916 25 ft 12 kts 268°
2026-04-24 16:05 33.87356 10.76845 23 ft 6 kts 268°
2026-04-24 16:06 33.87352 10.76723 21 ft 11 kts 268°
2026-04-24 16:06 33.87350 10.76626 19 ft 12 kts 268°
2026-04-24 16:06 33.87345 10.76432 20 ft 11 kts 268°
2026-04-24 16:07 33.87342 10.76337 19 ft 12 kts 268°
2026-04-24 16:07 33.87339 10.76232 17 ft 13 kts 268°
2026-04-24 16:07 33.87377 10.76058 17 ft 9 kts 338°
2026-04-24 16:08 33.87441 10.76052 19 ft 9 kts 358°
2026-04-24 16:08 33.87504 10.76096 21 ft 6 kts 92°
2026-04-24 16:09 33.87519 10.76676 20 ft 101 kts 88°
2026-04-24 16:09 33.87543 10.77777 182 ft 149 kts 86°
2026-04-24 16:09 33.87563 10.78603 698 ft 152 kts 86°
2026-04-24 16:09 33.87784 10.80287 1874 ft 156 kts 62°
2026-04-24 16:10 33.91309 10.80932 3759 ft 222 kts 324°
2026-04-24 16:11 33.93720 10.78895 5972 ft 213 kts 327°
2026-04-24 16:11 33.94121 10.78570 6232 ft 216 kts 327°
2026-04-24 16:12 33.99046 10.75802 9638 ft 239 kts 354°
2026-04-24 16:12 34.04006 10.75355 10068 ft 270 kts 354°
2026-04-24 16:13 34.05890 10.75172 10074 ft 272 kts 353°
2026-04-24 16:13 34.09361 10.73607 10535 ft 269 kts 333°
2026-04-24 16:14 34.12966 10.71401 11225 ft 314 kts 333°
2026-04-24 16:14 34.14944 10.70185 12078 ft 322 kts 333°
2026-04-24 16:14 34.19015 10.67695 14026 ft 334 kts 333°
2026-04-24 16:15 34.20421 10.66840 14567 ft 337 kts 333°
2026-04-24 16:15 34.25309 10.63881 15062 ft 339 kts 333°
2026-04-24 16:16 34.29575 10.61304 15100 ft 347 kts 333°
2026-04-24 16:16 34.31753 10.59989 15381 ft 352 kts 333°
2026-04-24 16:17 34.38318 10.56043 18669 ft 352 kts 333°
2026-04-24 16:17 34.42751 10.53484 20665 ft 351 kts 338°
2026-04-24 16:18 34.47470 10.52604 23222 ft 340 kts 354°
2026-04-24 16:18 34.52177 10.52451 24080 ft 337 kts 354°
2026-04-24 16:18 34.54549 10.52375 24080 ft 343 kts 354°
2026-04-24 16:19 34.59296 10.52215 24081 ft 340 kts 354°
2026-04-24 16:19 34.61659 10.52130 24083 ft 339 kts 354°
2026-04-24 16:20 34.66376 10.51955 24082 ft 339 kts 354°
2026-04-24 16:20 34.71097 10.51775 24081 ft 339 kts 354°
2026-04-24 16:20 34.73456 10.51684 24080 ft 340 kts 354°
2026-04-24 16:21 34.78185 10.51502 24080 ft 340 kts 354°
2026-04-24 16:21 34.80552 10.51411 24083 ft 340 kts 354°
2026-04-24 16:21 34.82920 10.51319 24082 ft 341 kts 354°
2026-04-24 16:22 34.85290 10.51228 24081 ft 341 kts 354°
2026-04-24 16:22 34.90026 10.51045 24079 ft 341 kts 354°
2026-04-24 16:22 34.92398 10.50953 24078 ft 341 kts 354°
2026-04-24 16:23 34.94766 10.50861 24085 ft 341 kts 354°
2026-04-24 16:23 34.97134 10.50770 24079 ft 341 kts 354°
2026-04-24 16:23 34.99504 10.50678 24077 ft 341 kts 354°
2026-04-24 16:24 35.04239 10.50494 24083 ft 340 kts 354°
2026-04-24 16:24 35.06601 10.50403 24098 ft 340 kts 354°
2026-04-24 16:24 35.08967 10.50369 24086 ft 340 kts 356°
2026-04-24 16:24 35.11332 10.50382 24081 ft 340 kts 356°
2026-04-24 16:25 35.13696 10.50407 24076 ft 339 kts 356°
2026-04-24 16:25 35.16056 10.50432 24079 ft 339 kts 356°
2026-04-24 16:25 35.18411 10.50454 24080 ft 338 kts 356°
2026-04-24 16:26 35.23093 10.50488 24086 ft 338 kts 356°
2026-04-24 16:26 35.25445 10.50501 24085 ft 338 kts 356°
2026-04-24 16:26 35.30146 10.50525 24105 ft 338 kts 356°
2026-04-24 16:27 35.32500 10.50535 24097 ft 339 kts 356°
2026-04-24 16:27 35.34867 10.50546 24093 ft 340 kts 356°
2026-04-24 16:27 35.37240 10.50557 24092 ft 341 kts 356°
2026-04-24 16:27 35.39615 10.50567 24095 ft 342 kts 356°
2026-04-24 16:28 35.41995 10.50578 24093 ft 342 kts 356°
2026-04-24 16:28 35.44376 10.50589 24092 ft 342 kts 356°
2026-04-24 16:28 35.49143 10.50611 24094 ft 342 kts 356°
2026-04-24 16:29 35.51521 10.50622 24096 ft 342 kts 356°
2026-04-24 16:29 35.53903 10.50632 24097 ft 342 kts 356°
2026-04-24 16:29 35.58665 10.50654 24095 ft 342 kts 356°
2026-04-24 16:30 35.63421 10.50675 24102 ft 342 kts 356°
2026-04-24 16:30 35.65797 10.50686 24096 ft 341 kts 356°
2026-04-24 16:30 35.68167 10.50697 24097 ft 341 kts 356°
2026-04-24 16:31 35.70538 10.50708 24101 ft 340 kts 356°
2026-04-24 16:31 35.72906 10.50718 24100 ft 340 kts 356°
2026-04-24 16:31 35.75276 10.50729 24053 ft 341 kts 356°
2026-04-24 16:31 35.77651 10.50739 23729 ft 341 kts 356°
2026-04-24 16:32 35.80029 10.50750 23214 ft 341 kts 357°
2026-04-24 16:32 35.82380 10.50761 22717 ft 336 kts 357°
2026-04-24 16:32 35.84711 10.50773 22232 ft 332 kts 357°
2026-04-24 16:32 35.87007 10.50784 21749 ft 329 kts 357°
2026-04-24 16:33 35.88813 10.50792 21356 ft 327 kts 357°
2026-04-24 16:33 35.90500 10.50800 20999 ft 325 kts 357°
2026-04-24 16:33 35.92753 10.50810 20530 ft 323 kts 358°
2026-04-24 16:33 35.94997 10.50820 20049 ft 321 kts 358°
2026-04-24 16:34 35.97227 10.50830 19580 ft 320 kts 358°
2026-04-24 16:34 35.99450 10.50839 19108 ft 319 kts 358°
2026-04-24 16:34 36.01671 10.50849 18630 ft 319 kts 358°
2026-04-24 16:34 36.03891 10.50859 18102 ft 319 kts 358°
2026-04-24 16:35 36.06109 10.50869 17593 ft 318 kts 358°
2026-04-24 16:35 36.08312 10.50879 17099 ft 316 kts 358°
2026-04-24 16:35 36.10508 10.50889 16617 ft 314 kts 358°
2026-04-24 16:35 36.12689 10.50899 16142 ft 312 kts 358°
2026-04-24 16:36 36.14858 10.50909 15672 ft 311 kts 359°
2026-04-24 16:36 36.17014 10.50919 15205 ft 309 kts 359°
2026-04-24 16:36 36.19130 10.50929 14745 ft 308 kts 359°
2026-04-24 16:36 36.21296 10.50939 14273 ft 307 kts 359°
2026-04-24 16:37 36.23395 10.50948 13804 ft 305 kts 359°
2026-04-24 16:37 36.25506 10.50958 13381 ft 301 kts 359°
2026-04-24 16:37 36.26912 10.50965 13078 ft 299 kts 359°
2026-04-24 16:37 36.29648 10.50977 12500 ft 294 kts 359°
2026-04-24 16:38 36.31684 10.50987 12071 ft 291 kts 359°
2026-04-24 16:38 36.33702 10.50996 11645 ft 289 kts 359°
2026-04-24 16:38 36.35707 10.51005 11235 ft 287 kts 359°
2026-04-24 16:38 36.37678 10.51014 11141 ft 281 kts 359°
2026-04-24 16:39 36.39610 10.51024 11104 ft 273 kts 359°
2026-04-24 16:39 36.41456 10.51033 11088 ft 257 kts 359°
2026-04-24 16:39 36.43192 10.51042 11097 ft 242 kts 358°
2026-04-24 16:39 36.44824 10.51050 11095 ft 227 kts 358°
2026-04-24 16:40 36.46360 10.51058 11012 ft 217 kts 358°
2026-04-24 16:40 36.47858 10.51064 10773 ft 215 kts 358°
2026-04-24 16:40 36.49364 10.51069 10383 ft 220 kts 358°
2026-04-24 16:40 36.50963 10.51074 9551 ft 242 kts 359°
2026-04-24 16:41 36.52726 10.51080 8722 ft 261 kts 359°
2026-04-24 16:41 36.54575 10.51086 8166 ft 267 kts 359°
2026-04-24 16:41 36.56442 10.51095 7672 ft 270 kts 359°
2026-04-24 16:41 36.58297 10.51104 7418 ft 263 kts 359°
2026-04-24 16:42 36.60114 10.51114 7204 ft 261 kts 359°
2026-04-24 16:42 36.61964 10.51123 6788 ft 271 kts 359°
2026-04-24 16:42 36.63850 10.51133 6322 ft 270 kts 359°
2026-04-24 16:42 36.65706 10.51141 5838 ft 264 kts 359°
2026-04-24 16:43 36.67529 10.51148 5350 ft 260 kts 359°
2026-04-24 16:43 36.69316 10.51007 4865 ft 258 kts 347°
2026-04-24 16:43 36.70935 10.50115 4316 ft 259 kts 324°
2026-04-24 16:43 36.72091 10.48547 4143 ft 251 kts 301°
2026-04-24 16:44 36.72569 10.46522 4040 ft 251 kts 270°
2026-04-24 16:44 36.72144 10.44398 4014 ft 252 kts 239°
2026-04-24 16:44 36.70965 10.42879 4005 ft 247 kts 208°
2026-04-24 16:44 36.69373 10.42325 3998 ft 234 kts 177°
2026-04-24 16:45 36.67864 10.42883 4005 ft 226 kts 144°
2026-04-24 16:45 36.66859 10.44343 4000 ft 225 kts 111°
2026-04-24 16:45 36.66664 10.46239 3997 ft 223 kts 79°
2026-04-24 16:45 36.67325 10.47904 3992 ft 213 kts 48°
2026-04-24 16:46 36.68385 10.49172 4010 ft 211 kts 44°
2026-04-24 16:46 36.69552 10.50230 4009 ft 204 kts 30°
2026-04-24 16:46 36.70730 10.51112 4008 ft 191 kts 34°
2026-04-24 16:46 36.71961 10.51664 3962 ft 192 kts 358°
2026-04-24 16:47 36.73249 10.51261 4003 ft 193 kts 340°
2026-04-24 16:47 36.74506 10.50633 4007 ft 195 kts 339°
2026-04-24 16:47 36.75734 10.49932 3959 ft 196 kts 326°
2026-04-24 16:47 36.76568 10.48568 3748 ft 203 kts 294°
2026-04-24 16:48 36.77151 10.46970 3592 ft 199 kts 296°
2026-04-24 16:48 36.77683 10.45384 3308 ft 197 kts 292°
2026-04-24 16:48 36.78182 10.43791 3051 ft 198 kts 291°
2026-04-24 16:48 36.78689 10.42180 2752 ft 199 kts 292°
2026-04-24 16:49 36.79206 10.40589 2475 ft 196 kts 292°
2026-04-24 16:49 36.79721 10.39024 2244 ft 190 kts 292°
2026-04-24 16:49 36.80205 10.37557 2191 ft 179 kts 293°
2026-04-24 16:49 36.80676 10.36128 1993 ft 176 kts 293°
2026-04-24 16:50 36.80980 10.35209 1857 ft 170 kts 294°
2026-04-24 16:50 36.81575 10.33406 1550 ft 168 kts 294°
2026-04-24 16:50 36.81995 10.32131 1374 ft 155 kts 295°
2026-04-24 16:50 36.82386 10.30932 1126 ft 145 kts 295°
2026-04-24 16:51 36.82771 10.29768 905 ft 145 kts 295°
2026-04-24 16:51 36.83152 10.28624 736 ft 139 kts 296°
2026-04-24 16:51 36.83516 10.27520 598 ft 137 kts 295°
2026-04-24 16:51 36.83860 10.26453 418 ft 129 kts 295°
2026-04-24 16:52 36.84205 10.25405 225 ft 132 kts 296°
2026-04-24 16:52 36.84570 10.24322 59 ft 136 kts 297°
2026-04-24 16:52 36.84906 10.23317 27 ft 105 kts 292°
2026-04-24 16:52 36.85108 10.22719 34 ft 40 kts 293°
2026-04-24 16:53 36.85197 10.22455 35 ft 30 kts 292°
2026-04-24 16:53 36.85260 10.22259 32 ft 16 kts 282°
2026-04-24 16:53 36.85219 10.22188 32 ft 10 kts 202°
2026-04-24 16:53 36.85150 10.22155 30 ft 10 kts 201°
2026-04-24 16:54 36.85113 10.22138 30 ft 0 kts 200°
2026-04-24 16:54 36.85113 10.22137 30 ft 0 kts 200°
2026-04-24 16:54 36.85112 10.22137 30 ft 0 kts 200°
2026-04-24 16:54 36.85110 10.22136 30 ft 0 kts 200°
2026-04-24 16:56 36.85095 10.22134 30 ft 4 kts 175°
2026-04-24 16:56 36.85075 10.22157 29 ft 8 kts 121°
2026-04-24 16:57 36.85047 10.22241 30 ft 13 kts 112°
2026-04-24 16:57 36.85010 10.22352 30 ft 11 kts 114°
2026-04-24 16:57 36.84952 10.22385 30 ft 10 kts 191°
2026-04-24 16:57 36.84888 10.22363 30 ft 10 kts 195°
2026-04-24 16:58 36.84809 10.22341 29 ft 13 kts 192°
2026-04-24 16:58 36.84720 10.22317 29 ft 13 kts 192°
2026-04-24 16:58 36.84633 10.22294 29 ft 13 kts 192°
2026-04-24 16:58 36.84549 10.22271 27 ft 12 kts 191°
2026-04-24 16:59 36.84495 10.22234 28 ft 9 kts 242°
2026-04-24 16:59 36.84499 10.22160 28 ft 8 kts 282°
2026-04-24 16:59 36.84526 10.22076 29 ft 6 kts 343°
2026-04-24 17:00 36.84556 10.22039 29 ft 6 kts 298°
2026-04-24 17:00 36.84567 10.22005 29 ft 0 kts 291°